Latest  Newer  Older  Last 2 hours animation  Current image  Latest image 
Rain/snow radar  Infrared sat images 
Real-time lightning map

All time is UTC (add 2 hours to UTC in wintertime, 3 hours to UTC in DST for Latvia local time)

2021/11/30 17:50 EVRA 301750Z 26005KT 180V340 9999 -SHSN SCT025CB BKN038 M02/M05 Q0986 NOSIG
2021/11/30 17:50 EVLA 301750Z AUTO 20003KT 9999 FEW048/// BKN055/// M01/M03 Q0989
2021/11/30 17:50 EVVA 301750Z AUTO 34013KT 9999 FEW035 BKN043 OVC049 01/M07 Q0988
2021/11/30 17:50 EYKA 301750Z 00000KT 9999 BKN010 OVC022 M03/M05 Q0989
2021/11/30 17:50 EYPA 301750Z VRB01KT CAVOK M03/M05 Q0990
2021/11/30 17:50 EYSA 301750Z 26007KT CAVOK M04/M07 Q0988 NOSIG
2021/11/30 17:50 EYVI 301750Z 23005KT 9999 SCT028 M04/M05 Q0988 NOSIG
2021/11/30 16:20 EEKA 301620Z 33022KT 9999 BKN019 M03/M06 Q0986
2021/11/30 17:20 EEKE 301720Z 33010G20KT 9999 BKN030 M02/M06 Q0986

2021/11/30 17:50 EETN 301750Z 32012KT 9999 DRSN OVC013 M07/M09 Q0983 NOSIG
2021/11/30 17:20 EETU 301720Z AUTO 29011KT 260V330 9999 OVC009/// M06/M08 Q0981
   RIGA AIRPORT     EVRA               56 55N  023 58E   10   X     T          6 LV
   LIEPAJA INTL     EVLA        26406  56 31N  021 06E    4   X                8 LV
   VENTPILS         EVVA               57 21N  021 33E    6   X                8 LV
   KAUNAS           EYKA               54 54N  023 55E   77   X     T          6 LT
   PALANGA INTL     EYPA               55 55N  021 03E   10   X                6 LT
   SIAULIAI INTL    EYSA               55 54N  023 24E  135   X     T          6 LT
   VILNIUS INTL     EYVI        26730  54 38N  025 17E  197   X     T          6 LT
   KARDLA           EEKA        26116  58 59N  022 50E    4   X                8 EE
   KURESSAARE       EEKE               58 14N  022 31E    4   X                8 EE
   PARNU            EEPU               58 25N  024 28E   14   X                8 EE
   TALLINN          EETN        26038  59 24N  024 49E   40   X     T          8 EE
   TARTU            EETU               58 19N  026 41E   67   X                8 EE

cloud coverage image from sat24.com and METAR data from weather.noaa.gov